Heidrick, KY (40949)

20:36 EST le 27 février 2017 (GMT -0500)
Mackey Bend | | Change Station

Alt. 1007 ft 36.82 °N, 83.96 °W | Updated 1 minute ago

Partiellement nuageux
Partiellement nuageux
50.9 ° F
Paraît 50.9 ° F
N
2.0
Vent Variable Vent de Ouest

Aujourd'hui
Haut(e) -- | Bas -- ° F
--% Risque de précip.
Hier
Haut(e) -- | Bas -- ° F
Precip. -- pouce
Pression 30.23 pouce
Visibilité 10.0 Miles terrestres
Nuages Ciel dégagé
Point de rosée 42 ° F
Humidité 71%
Précipitations 0.00 pouce
Profondeur de la couche neigeuse Non disponible.
7:08 AM 6:28 PM
Lune montante, 3% visible
METAR KLOZ 280053Z AUTO 00000KT 10SM CLR 09/01 A3022 RMK AO2 SLP236 T00890011 $
Pression 30.23 pouce
Visibilité 10.0 Miles terrestres
Nuages Ciel dégagé
Point de rosée 42 ° F
Humidité 71%
Précipitations 0.00 pouce
Profondeur de la couche neigeuse Non disponible.
7:08 AM 6:28 PM
Lune montante, 3% visible
METAR KLOZ 280053Z AUTO 00000KT 10SM CLR 09/01 A3022 RMK AO2 SLP236 T00890011 $

Get Your Daily Forecast Email!

Thanks for signing up!

Be on the lookout for a verification email in your inbox.

You'll start receiving the daily forecast at 8 AM.

×

10-Day Weather Forecast

Almanac

Astronomie

Feb. 27, 2017 Lever Coucher
Temps réel
Crépuscule civil
Crépuscule nautique
Crépuscule astronomique
Lune
Durée de lumière visible
Longueur du jour
Tomorrow will be .
, % of the Moon is Illuminated

Extrêmes aujourd'hui

State Highs State Lows

Community

WunderPhotos

Upload Photos

1,962,540 Photos téléchargées !

WunderBlog® & News

Nearby

Qualité de l'air

  Qualité de l'air Indice de la qualité de l'air Polluant
Not available.

Épaisseur de neige

Station Depth Altitude

Activité sismique

Ville Distance Mag. Time & Date
Minimum magnitude displayed is 2.5.

Températures des eaux côtières

Lieu Température

Stations

Stations météo à proximité

Emplacement de la station Température Refroidissement éolien Point de rosée Humidité Vent Precip. Alt. Mise à jour Type
                   

Watches & Warnings

There are currently no watches in effect.